ASTRA 1D

Last updated on Sun Nov 28 2021 00:02:34 GMT+0000 (Greenwich Mean Time)

1 23331U 94070A 21331.51638347 -.00000082 00000+0 00000+0 0 9998 2 23331 9.8433 39.0539 0004615 76.3045 331.0878 0.98951652 99497
UTC large
Height (km)
Speed (km/s)
/
Latitude / Longitude
Inclination (degrees)
Orbital Period (minutes)
Azimuth
Elevation
Range (km)
Doppler Factor

Next 0 passes for location: London (51.5072 / 0.1276)

Sorry there are no passes over London.